Regional Weather Roundup
Issued by NWS Columbia, SC

Current Version |  Previous Version |  Text Only |  Print | Product List |  Glossary On
Versions: 1 2 3 4 5 6 7 8 9 10 11 12 13 14 15 16 17 18 19 20 21 22 23 24 25 26 27
389
ASUS42 KCAE 280310
RWRCAE
REGIONAL WEATHER ROUNDUP
NATIONAL WEATHER SERVICE COLUMBIA SC
1100 PM EDT MON MAY 27 2024

NOTE: "FAIR" INDICATES FEW OR NO CLOUDS BELOW 12,000 FEET WITH NO
SIGNIFICANT WEATHER AND/OR OBSTRUCTIONS TO VISIBILITY.

NOT ALL STATIONS ARE QUALITY CONTROLLED BY THE NATIONAL
WEATHER SERVICE. USE DATA WITH CAUTION...ESPECIALLY
DEWPOINT OBSERVATIONS.

SCZ001>059-115-116-135>137-GAZ040-063>065-077-280400-
...UPSTATE SOUTH CAROLINA...

CITY           SKY/WX    TMP DP  RH WIND       PRES   REMARKS
ANDERSON       CLEAR     73  70  90 SW6       29.94R
LIBERTY        MOCLDY    73  73 100 CALM      29.94R
SPARTANBURG    CLEAR     72  68  88 W5        29.93R
CLEMSON        CLEAR     73  71  93 VRB3      29.95R
GREENVILLE     PTCLDY    75  70  84 SW7       29.95R
GREENWOOD      MOCLDY    73  69  87 SW7       29.94R
GREER          CLEAR     74  68  81 SW8       29.94R
ROCK HILL      PTCLDY    71  68  90 N5        29.93R
CHESTER        PTCLDY    72  72 100 CALM      29.93R
LAURENS        PTCLDY    73  70  88 W3        29.93R


...CENTRAL SOUTH CAROLINA...

CITY           SKY/WX    TMP DP  RH WIND       PRES   REMARKS
COLUMBIA APT   MOCLDY    77  69  76 SW3       29.91R
COLUMBIA OWENS MOCLDY    78  67  68 SW3       29.92R
MCENTIRE ANGB  MOCLDY    78  68  69 SW6       29.89R
ORANGEBURG     MOCLDY    79  72  79 S5        29.93R
SUMTER SHAW    MOCLDY    80  68  67 SW9       29.90R
BARNWELL       CLOUDY    77  72  83 MISG      29.93R
MANNING        MOCLDY    77  73  88 SW5       29.92S
CAMDEN         MOCLDY    77  66  69 CALM      29.92R
LANCASTER      PTCLDY    72  68  88 CALM      29.92R
WINNSBORO      MOCLDY    73  68  83 SW3       29.93R


...EASTERN AND COASTAL SOUTH CAROLINA...

CITY           SKY/WX    TMP DP  RH WIND       PRES   REMARKS
MYRTLE BEACH   PTCLDY    81  76  84 SW7       29.92R
N MYRTLE BCH   MOCLDY    79  74  84 SW6       29.90R
CONWAY         MOCLDY    79  73  83 SW6       29.91S
MARION         MOCLDY    77  77 100 SW7       29.91R
HARTSVILLE     MOCLDY    73  66  78 CALM      29.91R
FLORENCE       MOCLDY    79  67  66 S5        29.91R
DARLINGTON     MOCLDY    75  70  84 SW5       29.91R
CHARLESTON APT MOCLDY    78  72  81 S8        29.93S
MOUNT PLEASANT MOCLDY    79  77  94 CALM      29.93F
WALTERBORO     MOCLDY    77  75  94 S6        29.94R
BEAUFORT       CLOUDY    82  75  79 S6        29.93R
HILTON HEAD    CLOUDY    81  75  83 S6        29.95R


...EASTERN GEORGIA...

CITY           SKY/WX    TMP DP  RH WIND       PRES   REMARKS
AUGUSTA BUSH F CLOUDY    74  69  85 W5        29.91R
AUGUSTA DANIEL CLOUDY    77  69  76 VRB3      29.93R
THOMSON        CLOUDY    74  71  88 W3        29.95R
WASHINGTON     MOCLDY    73  70  92 SW3       29.96R
CLAXTON        CLOUDY    74  72  92 CALM      29.97R
SYLVANIA       CLOUDY    78  76  95 NW3       29.96R
STATESBORO     CLOUDY    77  73  86 W5        29.97R
SAVANNAH       CLOUDY    79  69  71 W10       29.94R


...SOUTHERN NORTH CAROLINA...

CITY           SKY/WX    TMP DP  RH WIND       PRES   REMARKS
CHARLOTTE      MOCLDY    76  66  71 W3        29.91R
MONROE         PTCLDY    72  68  87 SW6       29.91R
WADESBORO      PTCLDY    74  68  81 CALM      29.90R
ROCKINGHAM     MOCLDY    74  67  76 SW5       29.90R
RUTHERFORDTON  PTCLDY    70  70 100 NW3       29.95R
ASHEVILLE      PTCLDY    66  60  81 CALM      30.00R

$$